Regional Weather Roundup
Issued by NWS

Home | Current Version | Previous Version | Graphics & Text | Print | Product List | Glossary On
Versions: 1 2 3 4 5 6 7 8 9 10 11 12 13 14 15 16 17 18 19 20 21 22 23 24 25 26 27 28 29 30 31 32 33 34 35 36 37 38 39 40 41 42 43 44 45 46 47 48 49 50
000
ASUS43 KOAX 020910
RWRNE
WEATHER ROUNDUP FOR NEBRASKA
NATIONAL WEATHER SERVICE OMAHA NE
400 AM CDT TUE JUN 02 2015

NOTES: SATELLITE DATA IS BEING USED TO AUGMENT CLOUD COVER ABOVE
       12000 FEET.
       "FAIR" INDICATES FEW OR NO CLOUDS BELOW 12,000 FEET WITH NO
       SIGNIFICANT WEATHER AND/OR OBSTRUCTIONS TO VISIBILITY.

  * THESE STATIONS DO NOT REPORT WEATHER SUCH AS RAIN...SNOW OR FOG.

NEZ001>004-019>022-054>056-021000-
NEBRASKA PANHANDLE

CITY           SKY/WX    TMP DP  RH WIND       PRES   REMARKS
SCOTTSBLUFF    PTCLDY    60  53  77 S14       29.95R
ALLIANCE       MOCLDY    59  53  80 S16G25    29.89F
CHADRON        CLEAR     65  51  60 SW16G22   29.84R
KIMBALL          N/A    N/A N/A N/A MISG        N/A
SIDNEY         MOCLDY    58  56  93 S15       29.95F
$$

NEZ057>060-069>072-079>082-021000-
SOUTHWEST NEBRASKA

CITY           SKY/WX    TMP DP  RH WIND       PRES   REMARKS
NORTH PLATTE   LGT RAIN  62  56  80 N8        29.89F
IMPERIAL       CLOUDY    60  56  86 SW10      29.98R
LEXINGTON      RAIN      65  62  91 S18G30    29.97F
MCCOOK         LGT RAIN  61  59  93 NE12      29.93F
OGALLALA       CLOUDY    62  57  83 S24G31    29.89F
$$

NEZ005>010-023>029-035>040-094-021000-
NORTH CENTRAL NEBRASKA

CITY           SKY/WX    TMP DP  RH WIND       PRES   REMARKS
AINSWORTH      CLOUDY    64  60  87 S13       29.87F
BROKEN BOW     CLOUDY    66  58  75 MISG      29.89F
O`NEILL        CLOUDY    64  58  78 S17G23    29.93R
ORD            CLOUDY    62  57  83 SE14G21   29.90F
THEDFORD       CLOUDY    68  55  64 S16       29.90R
$$

NEZ041-046>049-061>064-073>077-083>087-021000-
SOUTH CENTRAL NEBRASKA

CITY           SKY/WX    TMP DP  RH WIND       PRES   REMARKS
GRAND ISLAND   CLOUDY    62  56  80 S13       30.02R
AURORA         CLOUDY    60  58  92 S13       30.00F
HASTINGS       CLOUDY    61  56  83 W6        30.03R
HEBRON         CLOUDY    59  55  84 SE7       30.03S
HOLDREGE       TSTM      63  59  86 SW7       30.04S
KEARNEY *      CLOUDY    63  57  82 S13       30.01F
YORK           CLOUDY    59  55  88 S13       30.03S
$$

NEZ011>018-030>034-042>045-021000-
NORTHEAST NEBRASKA

CITY           SKY/WX    TMP DP  RH WIND       PRES   REMARKS
NORFOLK        CLOUDY    60  55  83 SE13      29.99F
ALBION         CLOUDY    64  55  72 S13G21    29.99S
BLAIR          MOCLDY    57  52  82 S9        30.05S
COLUMBUS *     MOCLDY    61  52  72 S12       30.04R
FREMONT        MOCLDY    59  54  83 SE12      30.05S
TEKAMAH        CLOUDY    59  54  83 S12       30.04S
WAYNE          CLOUDY    60  55  83 S10       30.02S
$$

NEZ050>053-065>068-078-088>093-021000-
SOUTHEAST NEBRASKA

CITY           SKY/WX    TMP DP  RH WIND       PRES   REMARKS
LINCOLN        CLOUDY    59  54  83 SE10      30.05S
OMAHA EPPLEY   CLOUDY    58  53  84 SE10      30.06R
BEATRICE       CLOUDY    57  54  88 S9        30.05R
FALLS CITY     MOCLDY    54  52  93 SE8       30.07S
NEBRASKA CITY  MOCLDY    55  53  94 S8        30.07S
PLATTSMOUTH    MOCLDY    56  52  87 S9        30.06S
$$

NEZ044-045-051>053-067-021000-
OMAHA AREA

CITY           SKY/WX    TMP DP  RH WIND       PRES   REMARKS
OMAHA EPPLEY   CLOUDY    58  53  84 SE10      30.06R
BLAIR          MOCLDY    57  52  82 S9        30.05S
FREMONT        MOCLDY    59  54  83 SE12      30.05S
MILLARD        MOCLDY    58  54  86 SE6       30.06S
OFFUTT AFB     MOCLDY    56  53  89 SE10      30.05S
PLATTSMOUTH    MOCLDY    56  52  87 S9        30.06S
WAHOO          FAIR      58  54  86 S10       30.04F
$$



USA.gov is the U.S. government's official web portal to all federal, state and local government web resources and services.